Regional Weather Roundup
Issued by NWS New Orleans/Baton Rouge, LA

Home | Current Version | Previous Version | Text Only | Print | Product List | Glossary On
Versions: 1 2 3 4 5 6 7 8 9 10 11 12 13 14 15 16 17 18 19 20 21 22 23 24 25 26 27 28 29 30 31 32 33 34 35 36 37 38 39 40 41 42 43 44 45 46 47 48 49 50
000
ASUS44 KLIX 290612
RWRLIX
NEW ORLEANS REGIONAL WEATHER ROUNDUP
NATIONAL WEATHER SERVICE NEW ORLEANS LA
100 AM CDT FRI MAY 29 2015

NOTE: "FAIR" INDICATES FEW OR NO CLOUDS BELOW 12,000 FEET WITH NO
      SIGNIFICANT WEATHER AND/OR OBSTRUCTIONS TO VISIBILITY.
      SKY/WX - SKY CONDITION AND SIGNIFICANT WEATHER.
      TMP - AIR TEMPERATURE.     DP    - DEWPOINT TEMPERATURE.
      RH  - RELATIVE HUMIDITY.   PRES  - PRESSURE.
      HI  - HEAT INDEX.          WCI   - WIND CHILL INDEX.

*  THESE STATIONS ARE NOT NWS OR FAA STATIONS AND ARE NOT UNDER
   NWS QUALITY CONTROL.

LAZ038-040-048-061>063-065>067-069-290700-
SOUTHEAST LOUISIANA

CITY           SKY/WX    TMP DP  RH WIND       PRES   REMARKS
N.O. AUDUBON     N/A     78  76  92 MISG        N/A
6HR MIN TEMP:  78; 6HR MAX TEMP:  85;

N.O. INTL ARPT PTCLDY    77  70  79 SE7       30.04F
6HR MIN TEMP:  77; 6HR MAX TEMP:  86; 6HR PCP: TRACE;

N.O. LAKEFRONT CLEAR     79  70  74 S7        30.04F
6HR MIN TEMP:  79; 6HR MAX TEMP:  86;

SLIDELL        CLEAR     75  74  96 CALM      30.04F
6HR MIN TEMP:  75; 6HR MAX TEMP:  85;

BATON ROUGE    CLEAR     77  72  84 SE7       30.03F
6HR MIN TEMP:  76; 6HR MAX TEMP:  88;

BOOTHVILLE     CLEAR     75  72  90 SE3       30.05F
6HR MIN TEMP:  75; 6HR MAX TEMP:  79;

BELLE CHASSE   CLEAR     76  70  82 S6        30.04F
6HR MIN TEMP:  76; 6HR MAX TEMP:  83;

BOGALUSA*        N/A     74  70  87 CALM      30.07S
6HR MIN TEMP:  74; 6HR MAX TEMP:  85;

GALLIANO*      CLEAR     78  73  83 S3        30.04F
6HR MIN TEMP:  76; 6HR MAX TEMP:  82;

NEW ROADS*       N/A     76  72  88 S5        30.04S
6HR MIN TEMP:  75; 6HR MAX TEMP:  85;

GONZALES*        N/A     76  76 100 CALM      30.03F
6HR MIN TEMP:  76; 6HR MAX TEMP:  83;

HAMMOND*       PTCLDY    75  72  88 CALM      30.06S
HOUMA*         CLEAR     75  72  89 SE5       30.04S
6HR MIN TEMP:  75; 6HR MAX TEMP:  80;

PORT FOURCHON* PTCLDY    79  73  83 SE10G17   30.05F

$$

MSZ070-080>082-290700-
SOUTHERN MISSISSIPPI

CITY           SKY/WX    TMP DP  RH WIND       PRES   REMARKS
MCCOMB         CLOUDY    74  73  97 S5        30.07R
6HR MIN TEMP:  73; 6HR MAX TEMP:  87;

GULFPORT       PTCLDY    78  71  79 SE14      30.04F
6HR MIN TEMP:  78; 6HR MAX TEMP:  80;

BILOXI         CLEAR     78  72  82 SE9       30.04F
6HR MIN TEMP:  78; 6HR MAX TEMP:  80;

PASCAGOULA     CLEAR     72  70  93 E5        30.06F
6HR MIN TEMP:  69; 6HR MAX TEMP:  78;


$$

COASTAL OBSERVATIONS
LAKE AND NEARSHORE STATIONS

STATION/POSITION TIME  TEMP    WIND        PRES    WAVE
                       AIR SEA DIR/SP/G            HT/PER
                 (UTC) (F)     (DEG/KT/KT) (MB)    (FT/S)
PASCAGOULA       0500   78     120/ 11/ 13 1018.4
WAVELAND YACHT   0500   79 81  150/ 14/ 17 1018.0
GRAND ISLE       0500   79 84  140/  9/ 12 1017.9
SOUTHWEST PASS   0500   79 75  130/ 11/ 19 1018.5
NEW CANAL        0500   78 83  130/  4/  8 1016.8
SHELL BEACH      0500   77 82  130/  7/  8 1017.4

OFFSHORE STATIONS

STATION/POSITION TIME  TEMP    WIND        PRES    WAVE
                       AIR SEA DIR/SP/G            HT/PER
                 (UTC) (F)     (DEG/KT/KT) (MB)    (FT/S)
64 S DAUPHIN ISL 0550   78 80  120/ 10/ 12 1018.2    2/ 4

$$




USA.gov is the U.S. government's official web portal to all federal, state and local government web resources and services.